カタログに戻る

CZ-4B R/B

運用中SSO
NORAD 27432·ROCKET BODY·🇨🇳 China

打ち上げ May 15, 2002 から Taiyuan Satellite Launch Center

Loading…

次のパス (今後24時間)

TLE

最新Source: Space-Track

元期: Sep 14, 2026, 03:26 UTC

1 27432U 02024C   26257.14345017  .00000019  00000-0  32529-4 0  9998
2 27432  98.8612 309.3492 0049698 206.4614 176.8985 14.14575159255887

AllMySatでCZ-4B R/Bをリアルタイム追跡

Download on the App Store